Flag for Puerto Rico Weather past 2 weeks in San Juan, Puerto Rico

Now
77 °F

Passing clouds.


Feels Like: 79 °F
Forecast: 78 / 83 °F
Wind: 12 mph from Northeast

Location: Luis Munoz Marin

Current Time: Dec 25, 2014 at 5:33:51 AM

Latest Report: Dec 25, 2014 at 4:56 AM


Visibility: 10 mi

Pressure: 30.03 "Hg

Humidity: 79%

Dew point: 70 °F

Location of San JuanLocation

Historic Weather in San Juan — Graph

°F

San Juan temperature yesterday

Maximum temperature yesterday: 84 °F (at 10:56 AM)
Minimum temperature yesterday: 74 °F (at 6:56 AM)
Average temperature yesterday: 79 °F

Past Weeks' High & Low Weather Summary

 TemperatureHumidityPressure
High88 °F (Dec 14, 11:56 AM)100% (Dec 15, 5:56 AM)30.10 "Hg (Dec 15, 5:56 AM)
Low73 °F (Dec 10, 5:56 AM)55% (Dec 13, 11:56 AM)29.84 "Hg (Dec 14, 2:56 PM)
Average79 °F79%29.99 "Hg
* Reported Dec 10 3:56 AM — Dec 25 3:56 AM, San Juan, Weather by CustomWeather, © 2014

Note: Actual official high and low records may vary slightly from our data, if they occured in-between our weather recording intervals... More about our weather records

Advertising

San Juan weather history for previous 24 hours

 ConditionsComfort  
Time TempWeatherWind HumidityBarometerVisibility
3:56 AM
Dec 25
76 °FPartly cloudy.5 mph91%30.02 "Hg10 mi
2:56 AM78 °FPassing clouds.10 mph79%30.03 "Hg10 mi
1:56 AM77 °FPassing clouds.10 mph79%30.04 "Hg10 mi
12:56 AM77 °FPartly cloudy.14 mph82%30.05 "Hg10 mi
11:56 PM
Dec 24
78 °FPassing clouds.9 mph82%30.06 "Hg10 mi
10:56 PM78 °FPartly cloudy.14 mph82%30.07 "Hg10 mi
9:56 PM80 °FPassing clouds.15 mph74%30.08 "Hg10 mi
8:56 PM79 °FPassing clouds.9 mph74%30.06 "Hg10 mi
7:56 PM78 °FPassing clouds.9 mph74%30.04 "Hg10 mi
6:56 PM80 °FPassing clouds.14 mph71%30.02 "Hg10 mi
5:56 PM80 °FScattered clouds.12 mph71%30.00 "Hg10 mi
4:56 PM81 °FScattered clouds.16 mph69%29.98 "Hg10 mi
3:56 PM82 °FScattered clouds.15 mph70%29.98 "Hg10 mi
2:56 PM82 °FScattered clouds.14 mph70%29.99 "Hg10 mi
1:56 PM83 °FScattered clouds.17 mph65%30.00 "Hg10 mi
12:56 PM83 °FScattered clouds.17 mph63%30.02 "Hg10 mi
11:56 AM84 °FScattered clouds.20 mph61%30.03 "Hg10 mi
10:56 AM84 °FScattered clouds.20 mph63%30.04 "Hg10 mi
9:56 AM82 °FPassing clouds.18 mph67%30.05 "Hg10 mi
8:56 AM80 °FPassing clouds.8 mph69%30.04 "Hg10 mi
7:56 AM76 °FPassing clouds.No wind80%30.03 "Hg10 mi
6:56 AM74 °FPassing clouds.3 mph82%30.01 "Hg10 mi
5:56 AM75 °FPartly cloudy.3 mph79%29.99 "Hg10 mi
Weather by CustomWeather, © 2014

See weather overviewHow to use our weather pages